Location: Devargunta
(16.7631°N, 80.9077°E)
Time: 19:52:27
(UTC+00:00)

Milstar 3 - Pass Details

Date: 19 January 2021
Orbit: 1093 x 5152 km, 28.3° (Epoch: 11 February)

Event Time Altitude Azimuth Distance (km) Brightness Sun altitude
Exits shadow 22:47:29 54° 274° (W) 2,872 4.4 -33.2°
Maximum altitude 22:51:52 75° 206° (SSW) 2,926 4.7 -32.2°
Drops below altitude 10° 23:16:47 10° 125° (SE) 7,902 8.0 -26.4°
Sets 23:24:05 0° 123° (ESE) 9,311 8.7 -24.7°
